Regional Weather Roundup
Issued by NWS

Home | Current Version | Previous Version | Text Only | Print | Product List | Glossary Off
Versions: 1 2 3 4 5 6 7 8 9 10 11 12 13 14 15 16 17 18 19 20 21 22 23 24 25 26 27 28 29 30 31 32 33 34 35 36 37 38 39 40 41 42 43 44 45 46 47 48 49 50

000
ASUS45 KABQ 200010
RWRNM
NEW MEXICO REGIONAL WEATHER ROUNDUP
NATIONAL WEATHER SERVICE ALBUQUERQUE NM
500 PM MST THU JAN 19 2017

NOTE: "FAIR" MEANS FEW OR NO CLOUDS BELOW 12,000 FEET AGL WITH NO
       SIGNIFICANT WEATHER OR OBSTRUCTIONS TO VISION.

      THIS PRODUCT IS RELEASED AS TWO VERSIONS.  ONE VERSION NEAR
      THE TOP OF THE HOUR CONTAINING PRELIMINARY DATA FROM ALBUQUERQUE
      AND OTHER STATIONS.  A FINAL VERSION WITH ADDITIONAL DATA IS
      ISSUED ABOUT 10 MINUTES AFTER THE HOUR.

NMZ501-503-504-510>518-200100-
NORTHWEST PLATEAU/NORTHCENTRAL MOUNTAINS

CITY           SKY/WX    TMP DP  RH WIND       PRES   REMARKS
FARMINGTON     LGT RAIN  35  32  88 W5        29.79F WCI  31
6HR MIN TEMP:  35; 6HR MAX TEMP:  42; 6HR PCP:  0.01;

LOS ALAMOS     MOCLDY    37  27  67 CALM      29.78R
SANTA FE       MOCLDY    41  26  55 W14G21    29.75S
6HR MIN TEMP:  40; 6HR MAX TEMP:  45;

TAOS           FAIR      36  19  51 SW12      29.75R WCI  27
ANGEL FIRE     MOCLDY    30  22  71 SW10      29.74R WCI  21

$$
NMZ402-403-502-505>509-200100-
WESTCENTRAL MOUNTAINS/SOUTHWEST MOUNTAINS

CITY           SKY/WX    TMP DP  RH WIND       PRES   REMARKS
GALLUP         CLOUDY    34  31  88 SW14      29.82F WCI  25
6HR MIN TEMP:  33; 6HR MAX TEMP:  38; 6HR PCP:  0.03;

GRANTS         CLOUDY    38  28  67 CALM      29.83S
SILVER CITY    FAIR      43  33  67 W14       29.89R

$$
NMZ407-409-411-412-200100-
SOUTHERN DESERTS

CITY           SKY/WX    TMP DP  RH WIND       PRES   REMARKS
DEMING         FAIR      49  29  46 W14       29.88S
6HR MIN TEMP:  48; 6HR MAX TEMP:  53;

LAS CRUCES     FAIR      51  28  41 W25G32    29.86F
HOLLOMAN AFB   MOCLDY    52  33  47 S12G20    29.84S
ALAMOGORDO     FAIR      50  36  57 S9        29.83S
T OR C         FAIR      50  32  50 SW3       29.81R
6HR MIN TEMP:  48; 6HR MAX TEMP:  53;


$$
NMZ519>523-200100-
CENTRAL VALLEYS/CENTRAL HIGHLANDS

CITY           SKY/WX    TMP DP  RH WIND       PRES   REMARKS
ALBUQUERQUE    CLOUDY    46  29  51 W16G25    29.79R
6HR MIN TEMP:  41; 6HR MAX TEMP:  50;

DOUBLE EAGLE   DRIZZLE   43  30  61 NW14      29.80R
MORIARTY ARPT  MOCLDY    42  24  47 W14G20    29.78R
6HR MIN TEMP:  42; 6HR MAX TEMP:  47;

CLINES CORNERS MOCLDY    37  24  59 W21       29.75S WCI  26
6HR MIN TEMP:  35; 6HR MAX TEMP:  41;

BELEN          CLOUDY    46  30  54 W15       29.80S
6HR MIN TEMP:  46; 6HR MAX TEMP:  53;

SOCORRO        CLOUDY    50  30  46 W12       29.78F
6HR MIN TEMP:  46; 6HR MAX TEMP:  53;


$$
NMZ524>526-539-540-200100-
SOUTHCENTRAL MOUNTAINS

CITY           SKY/WX    TMP DP  RH WIND       PRES   REMARKS
RUIDOSO        FAIR      41  23  48 W10G17    29.78S

$$
NMZ527>531-200100-
NORTHEAST HIGHLANDS/NORTHEAST PLAINS

CITY           SKY/WX    TMP DP  RH WIND       PRES   REMARKS
LAS VEGAS      MOCLDY    40  26  57 SW18      29.63R WCI  31
6HR MIN TEMP:  39; 6HR MAX TEMP:  49;

RATON          FAIR      43  26  51 W5        29.57S
6HR MIN TEMP:  40; 6HR MAX TEMP:  52;

CLAYTON        FAIR      49  22  34 NE7       29.54F
6HR MIN TEMP:  49; 6HR MAX TEMP:  62;


$$
NMZ532>537-200100-
EASTCENTRAL PLAINS

CITY           SKY/WX    TMP DP  RH WIND       PRES   REMARKS
TUCUMCARI      FAIR      53  27  36 SW9       29.55R
6HR MIN TEMP:  53; 6HR MAX TEMP:  67;

CANNON AFB     FAIR      53  24  32 W23G36    29.63R
6HR MIN TEMP:  53; 6HR MAX TEMP:  61;

CLOVIS AIRPORT FAIR      54  25  32 W28G37    29.61S

$$
NMZ028-029-538-200100-
SOUTHEAST PLAINS

CITY           SKY/WX    TMP DP  RH WIND       PRES   REMARKS
ROSWELL        FAIR      57  26  30 W15       29.69S
6HR MIN TEMP:  57; 6HR MAX TEMP:  64;

ARTESIA        FAIR      57  32  38 SW17G24   29.72R
CARLSBAD       FAIR      58  29  33 W33G47    29.70F
6HR MIN TEMP:  57; 6HR MAX TEMP:  64; 6HR PCP: TRACE;

HOBBS          CLEAR     54  30  40 SW20G26   29.70S


$$



USA.gov is the U.S. government's official web portal to all federal, state and local government web resources and services.